Weather History for Cairns, QU

Change the Weather History Date:

Thursday, December 13, 2012

  Actual Average Record
Temperature  
Mean Temperature 81 °F -  
Max Temperature 89 °F 88 °F 95 °F (2011)
Min Temperature 73 °F 74 °F 69 °F (2005)
Cooling Degree Days 16    
Growing Degree Days 31 (Base 50)    
Moisture  
Dew Point 69 °F    
Average Humidity 68    
Maximum Humidity 89    
Minimum Humidity 37    
Precipitation  
Precipitation 0.04 in 0.37 in - ()
Sea Level Pressure  
Sea Level Pressure 29.90 in    
Wind  
Wind Speed 12 mph ()    
Max Wind Speed 25 mph    
Max Gust Speed 30 mph    
Visibility 7.0 miles    
Events Rain    
Averages and records for this station are not official NWS values.
T = Trace of Precipitation, MM = Missing Value Source: Averaged Metar Reports

Daily Weather History Graph

Daily Weather History Graph

Search for Another Location

Airport:

Trip Planner

Search our weather history database for the weather conditions in past years. The results will help you decide how hot, cold, wet, or windy it might be!

Date:

Astronomy

Dec. 13, 2012 Rise Set
Actual Time 5:37 AM AEST 6:45 PM AEST
Civil Twilight 5:13 AM AEST 7:08 PM AEST
Nautical Twilight 4:45 AM AEST 7:37 PM AEST
Astronomical Twilight 4:16 AM AEST 8:06 PM AEST
Moon 5:11 AM AEST (12/13) 6:37 PM AEST (12/13)
Length of Visible Light 13h 55m
Length of Day
13h 07m
Waning Crescent, 0% of the Moon is Illuminated
Dec 13
Waning Crescent
Dec 13
New
Dec 20
First Quarter
Dec 28
Full
Jan 5
Last Quarter

Hourly Weather History & Observations

Time (AEST) Temp. Heat Index Dew Point Humidity Pressure Visibility Wind Dir Wind Speed Gust Speed Precip Events Conditions
12:00 AM 77 °F - 69 °F 68% 29.92 in - SSE 8.1 mph - -  
12:00 AM 77.0 °F - 68.0 °F 74% 29.92 in 6.2 mi SSE 8.1 mph - N/A   Mostly Cloudy
12:30 AM 77.0 °F - 68.0 °F 74% 29.89 in 6.2 mi SE 4.6 mph - N/A   Scattered Clouds
1:00 AM 77 °F - 68 °F 67% 29.91 in - SSE 8.1 mph - -  
1:00 AM 77.0 °F - 68.0 °F 74% 29.89 in 6.2 mi SSE 8.1 mph - N/A   Mostly Cloudy
1:19 AM 75.2 °F - 69.8 °F 83% 29.89 in 3.7 mi SE 8.1 mph - N/A Rain Rain Showers
1:30 AM 75.2 °F - 71.6 °F 89% 29.89 in 6.2 mi SE 6.9 mph - N/A Rain Light Rain Showers
2:00 AM 75.2 °F - 69.8 °F 83% 29.89 in 6.2 mi South 5.8 mph - N/A   Mostly Cloudy
2:30 AM 75.2 °F - 69.8 °F 83% 29.89 in 6.2 mi SSE 6.9 mph - N/A   Scattered Clouds
3:00 AM 75 °F - 69 °F 77% 29.88 in - South 8.1 mph - -  
3:00 AM 75.2 °F - 69.8 °F 83% 29.86 in 6.2 mi South 8.1 mph - N/A   Scattered Clouds
3:30 AM 73.4 °F - 69.8 °F 88% 29.86 in 6.2 mi SE 9.2 mph - N/A   Scattered Clouds
4:00 AM 75 °F - 68 °F 73% 29.87 in - South 10.4 mph - -  
4:00 AM 75.2 °F - 68.0 °F 78% 29.86 in 6.2 mi South 10.4 mph - N/A   Partly Cloudy
4:30 AM 73.4 °F - 69.8 °F 88% 29.86 in 6.2 mi SE 9.2 mph - N/A   Partly Cloudy
5:00 AM 73.4 °F - 68.0 °F 83% 29.86 in 6.2 mi SSE 8.1 mph - N/A   Mostly Cloudy
5:30 AM 75.2 °F - 68.0 °F 78% 29.86 in 6.2 mi South 11.5 mph - N/A   Mostly Cloudy
6:00 AM 75 °F - 68 °F 72% 29.89 in 19 mi South 10.4 mph - -   Scattered Clouds
6:00 AM 75.2 °F - 68.0 °F 78% 29.89 in 6.2 mi South 10.4 mph - N/A   Partly Cloudy
6:30 AM 77.0 °F - 69.8 °F 78% 29.89 in 6.2 mi South 10.4 mph - N/A   Scattered Clouds
7:00 AM 75.2 °F - 69.8 °F 83% 29.92 in 6.2 mi South 10.4 mph - N/A   Scattered Clouds
7:30 AM 77.0 °F - 69.8 °F 78% 29.92 in 6.2 mi South 8.1 mph - N/A   Partly Cloudy
8:00 AM 80.6 °F 83.9 °F 69.8 °F 70% 29.92 in 6.2 mi SSE 13.8 mph - N/A   Partly Cloudy
8:30 AM 82.4 °F 86.3 °F 69.8 °F 66% 29.92 in 6.2 mi South 17.3 mph - N/A   Partly Cloudy
9:00 AM 85 °F - 70 °F 52% 29.93 in 19 mi SSE 17.3 mph - -   Partly Cloudy
9:00 AM 84.2 °F 88.4 °F 69.8 °F 62% 29.92 in 6.2 mi SSE 17.3 mph - N/A   Partly Cloudy
9:30 AM 86.0 °F 89.4 °F 68.0 °F 55% 29.92 in 6.2 mi SSE 17.3 mph - N/A   Partly Cloudy
9:52 AM 87.8 °F 91.4 °F 68.0 °F 52% 29.92 in 6.2 mi SSE 18.4 mph 29.9 mph N/A   Partly Cloudy
10:00 AM 87 °F - 68 °F 44% 29.93 in - SE 23.0 mph - -  
10:00 AM 87.8 °F 91.4 °F 68.0 °F 52% 29.92 in 6.2 mi SE 23.0 mph - N/A   Partly Cloudy
10:30 AM 86.0 °F 90.4 °F 69.8 °F 58% 29.92 in 6.2 mi SE 20.7 mph - N/A   Partly Cloudy
11:00 AM 87.8 °F 91.4 °F 68.0 °F 52% 29.92 in 6.2 mi SE 23.0 mph - N/A   Scattered Clouds
11:30 AM 87.8 °F 91.4 °F 68.0 °F 52% 29.92 in 6.2 mi SE 21.9 mph - N/A   Scattered Clouds
12:00 PM 88 °F - 67 °F 41% 29.92 in 16 mi SE 21.9 mph - -   Partly Cloudy
12:00 PM 87.8 °F 91.4 °F 68.0 °F 52% 29.92 in 6.2 mi SE 21.9 mph - N/A   Scattered Clouds
12:30 PM 86.0 °F 89.4 °F 68.0 °F 55% 29.89 in 6.2 mi SE 21.9 mph - N/A   Scattered Clouds
1:00 PM 89 °F - 67 °F 39% 29.91 in - SE 23.0 mph - -  
1:00 PM 89.6 °F 93.4 °F 68.0 °F 49% 29.89 in 6.2 mi SE 23.0 mph - N/A   Scattered Clouds
1:30 PM 87.8 °F 89.4 °F 64.4 °F 46% 29.89 in 6.2 mi SE 23.0 mph - N/A   Scattered Clouds
2:00 PM 86.0 °F 88.2 °F 66.2 °F 51% 29.89 in 6.2 mi SE 21.9 mph - N/A   Scattered Clouds
2:30 PM 87.8 °F 88.5 °F 62.6 °F 43% 29.86 in 6.2 mi SE 24.2 mph - N/A   Scattered Clouds
3:00 PM 88 °F - 65 °F 37% 29.87 in 19 mi SE 25.3 mph - -   Partly Cloudy
3:00 PM 87.8 °F 89.4 °F 64.4 °F 46% 29.86 in 6.2 mi SE 25.3 mph - N/A   Scattered Clouds
3:30 PM 87.8 °F 91.4 °F 68.0 °F 52% 29.86 in 6.2 mi SSE 23.0 mph - N/A   Partly Cloudy
4:00 PM 84 °F - 68 °F 49% 29.88 in - SE 20.7 mph - -  
4:00 PM 84.2 °F 87.3 °F 68.0 °F 58% 29.86 in 6.2 mi SE 20.7 mph - N/A   Partly Cloudy
4:30 PM 84.2 °F 86.6 °F 66.2 °F 55% 29.86 in 6.2 mi SE 20.7 mph - N/A   Partly Cloudy
4:52 PM 78.8 °F - 68.0 °F 69% 29.89 in 6.2 mi SE 21.9 mph - N/A Rain Light Rain Showers
4:55 PM 75.2 °F - 69.8 °F 83% 29.89 in 6.2 mi South 24.2 mph - N/A Rain Light Rain Showers
5:00 PM 75.2 °F - 69.8 °F 83% 29.89 in 6.2 mi SSE 21.9 mph - N/A   Scattered Clouds
5:30 PM 77.0 °F - 69.8 °F 78% 29.89 in 5.6 mi South 10.4 mph - N/A   Scattered Clouds
6:00 PM 77 °F - 70 °F 72% 29.90 in - South 10.4 mph - -   Overcast
6:00 PM 77.0 °F - 69.8 °F 78% 29.89 in 6.2 mi South 10.4 mph - N/A   Mostly Cloudy
6:30 PM 77.0 °F - 69.8 °F 78% 29.89 in 6.2 mi South 9.2 mph - N/A   Scattered Clouds
7:00 PM 77 °F - 70 °F 73% 29.92 in - South 10.4 mph - -  
7:00 PM 77.0 °F - 69.8 °F 78% 29.89 in 6.2 mi South 10.4 mph - N/A   Scattered Clouds
7:30 PM 77.0 °F - 69.8 °F 78% 29.92 in 6.2 mi South 8.1 mph - N/A   Scattered Clouds
8:00 PM 77.0 °F - 69.8 °F 78% 29.92 in 6.2 mi South 8.1 mph - N/A   Scattered Clouds
8:30 PM 77.0 °F - 69.8 °F 78% 29.92 in 6.2 mi South 8.1 mph - N/A   Scattered Clouds
9:00 PM 77 °F - 71 °F 75% 29.93 in - South 8.1 mph - -  
9:00 PM 77.0 °F - 69.8 °F 78% 29.92 in 6.2 mi South 8.1 mph - N/A   Scattered Clouds
9:30 PM 77.0 °F - 69.8 °F 78% 29.92 in 6.2 mi South 9.2 mph - N/A   Partly Cloudy
10:00 PM 76 °F - 70 °F 77% 29.95 in - South 8.1 mph - -  
10:00 PM 77.0 °F - 69.8 °F 78% 29.95 in 6.2 mi South 8.1 mph - N/A   Partly Cloudy
10:30 PM 77.0 °F - 69.8 °F 78% 29.95 in 6.2 mi South 10.4 mph - N/A   Partly Cloudy
11:00 PM 77.0 °F - 69.8 °F 78% 29.95 in 6.2 mi South 9.2 mph - N/A   Partly Cloudy
11:30 PM 77.0 °F - 69.8 °F 78% 29.95 in 6.2 mi South 10.4 mph - N/A   Partly Cloudy